| time (UTC) | temp C | wind direction | speed KPH | gust KPH | rain 1hr cm | rain 24hr cm | rain mn cm | humidity % | barometer mb |
| 20260506214551 | 11 | 360 | 6.4 | 16.1 | 0.13 | 0.38 | 0.38 | 88 | 1005.7 |
| 20260506213052 | 12 | 360 | 6.4 | 24.1 | 0.13 | 0.36 | 0.36 | 88 | 1005.8 |
| 20260506211554 | 12 | 360 | 6.4 | 27.4 | 0.10 | 0.33 | 0.33 | 88 | 1006.1 |
| 20260506210054 | 12 | 360 | 6.4 | 22.5 | 0.08 | 0.30 | 0.30 | 87 | 1006.0 |
| 20260506204551 | 12 | 360 | 4.8 | 22.5 | 0.10 | 0.25 | 0.25 | 86 | 1006.1 |
| 20260506203058 | 12 | 360 | 9.7 | 22.5 | 0.15 | 0.23 | 0.23 | 86 | 1006.1 |
| 20260506201551 | 12 | 360 | 3.2 | 17.7 | 0.20 | 0.23 | 0.23 | 87 | 1005.9 |
| 20260506200051 | 13 | 360 | 4.8 | 14.5 | 0.23 | 0.23 | 0.23 | 87 | 1006.2 |
| 20260506194553 | 12 | 360 | 4.8 | 19.3 | 0.15 | 0.15 | 0.15 | 87 | 1006.4 |
| 20260506193053 | 12 | 360 | 4.8 | 12.9 | 0.08 | 0.08 | 0.08 | 85 | 1006.6 |
| 20260506191548 | 12 | 360 | 1.6 | 9.7 | 0.03 | 0.03 | 0.03 | 83 | 1006.5 |
| 20260506190052 | 13 | 360 | 6.4 | 19.3 | 0.00 | 0.00 | 0.00 | 81 | 1006.8 |
| 20260506184551 | 13 | 360 | 9.7 | 20.9 | 0.00 | 0.00 | 0.00 | 79 | 1006.6 |
| 20260506183058 | 13 | 360 | 12.9 | 29.0 | 0.00 | 0.00 | 0.00 | 77 | 1006.6 |
| 20260506181604 | 13 | 360 | 11.3 | 24.1 | 0.00 | 0.00 | 0.00 | 76 | 1006.6 |
| 20260506180054 | 14 | 360 | 9.7 | 20.9 | 0.00 | 0.00 | 0.00 | 75 | 1006.7 |
| 20260506174549 | 14 | 360 | 6.4 | 19.3 | 0.00 | 0.00 | 0.00 | 75 | 1006.7 |
| 20260506173117 | 14 | 360 | 3.2 | 20.9 | 0.00 | 0.00 | 0.00 | 75 | 1006.8 |
| 20260506171556 | 15 | 360 | 4.8 | 17.7 | 0.00 | 0.00 | 0.00 | 75 | 1007.1 |
| 20260506170059 | 15 | 360 | 4.8 | 19.3 | 0.00 | 0.00 | 0.00 | 74 | 1007.3 |
| 20260506164552 | 15 | 360 | 6.4 | 14.5 | 0.00 | 0.00 | 0.00 | 74 | 1007.4 |
| 20260506163055 | 15 | 360 | 4.8 | 14.5 | 0.00 | 0.00 | 0.00 | 74 | 1007.8 |
| 20260506161550 | 15 | 360 | 3.2 | 17.7 | 0.00 | 0.00 | 0.00 | 74 | 1008.2 |
| 20260506160108 | 15 | 360 | 4.8 | 17.7 | 0.00 | 0.00 | 0.00 | 74 | 1008.5 |
| 20260506154551 | 15 | 360 | 4.8 | 16.1 | 0.00 | 0.00 | 0.00 | 75 | 1008.6 |
| 20260506153055 | 15 | 360 | 6.4 | 14.5 | 0.00 | 0.00 | 0.00 | 76 | 1008.5 |
| 20260506151551 | 15 | 360 | 6.4 | 14.5 | 0.00 | 0.00 | 0.00 | 76 | 1008.6 |
| 20260506150057 | 15 | 360 | 8.0 | 17.7 | 0.00 | 0.00 | 0.00 | 76 | 1008.6 |
| 20260506144554 | 15 | 360 | 6.4 | 14.5 | 0.00 | 0.00 | 0.00 | 76 | 1008.1 |
| 20260506143051 | 14 | 360 | 4.8 | 17.7 | 0.00 | 0.00 | 0.00 | 78 | 1008.1 |
| 20260506141554 | 14 | 360 | 3.2 | 12.9 | 0.00 | 0.00 | 0.00 | 78 | 1008.3 |
| 20260506140049 | 14 | 360 | 4.8 | 9.7 | 0.00 | 0.00 | 0.00 | 78 | 1008.8 |
| 20260506134551 | 13 | 360 | 4.8 | 8.0 | 0.00 | 0.00 | 0.00 | 79 | 1008.7 |
| 20260506133048 | 13 | 360 | 4.8 | 12.9 | 0.00 | 0.00 | 0.00 | 78 | 1008.9 |
| 20260506131600 | 13 | 360 | 4.8 | 12.9 | 0.00 | 0.00 | 0.00 | 78 | 1008.6 |
| 20260506130055 | 13 | 360 | 3.2 | 12.9 | 0.00 | 0.00 | 0.00 | 78 | 1008.6 |
| 20260506124552 | 13 | 360 | 1.6 | 8.0 | 0.00 | 0.00 | 0.00 | 78 | 1008.6 |
| 20260506123053 | 13 | 360 | 0.0 | 6.4 | 0.00 | 0.00 | 0.00 | 79 | 1008.7 |
| 20260506121552 | 13 | 360 | 0.0 | 4.8 | 0.00 | 0.00 | 0.00 | 79 | 1008.9 |
| 20260506120053 | 13 | 0 | 0.0 | 3.2 | 0.00 | 0.00 | 0.00 | 79 | 1009.1 |
| 20260506114550 | 12 | 0 | 0.0 | 1.6 | 0.00 | 0.00 | 0.00 | 79 | 1009.3 |
| 20260506113049 | 12 | 0 | 0.0 | 3.2 | 0.00 | 0.00 | 0.00 | 80 | 1009.5 |
| 20260506111552 | 12 | 360 | 0.0 | 4.8 | 0.00 | 0.00 | 0.00 | 81 | 1009.2 |
| 20260506110050 | 11 | 0 | 0.0 | 3.2 | 0.00 | 0.00 | 0.00 | 81 | 1009.3 |
| 20260506104550 | 11 | 0 | 0.0 | 1.6 | 0.00 | 0.00 | 0.00 | 81 | 1009.4 |
| 20260506103047 | 11 | 360 | 0.0 | 4.8 | 0.00 | 0.00 | 0.00 | 82 | 1008.9 |
| 20260506101549 | 11 | 0 | 0.0 | 3.2 | 0.00 | 0.00 | 0.00 | 82 | 1009.2 |
| 20260506100051 | 11 | 0 | 0.0 | 0.0 | 0.00 | 0.00 | 0.00 | 82 | 1008.8 |
| 20260506094619 | 11 | 0 | 0.0 | 0.0 | 0.00 | 0.00 | 0.00 | 81 | 1009.0 |
| 20260506093052 | 11 | 0 | 0.0 | 3.2 | 0.00 | 0.00 | 0.00 | 80 | 1008.8 |
| 20260506091551 | 11 | 0 | 0.0 | 6.4 | 0.00 | 0.00 | 0.00 | 79 | 1008.8 |
| 20260506090053 | 11 | 360 | 0.0 | 3.2 | 0.00 | 0.00 | 0.00 | 79 | 1008.8 |
| 20260506084557 | 12 | 0 | 1.6 | 4.8 | 0.00 | 0.00 | 0.00 | 78 | 1008.7 |
| 20260506083058 | 12 | 360 | 0.0 | 6.4 | 0.00 | 0.00 | 0.00 | 78 | 1008.6 |
| 20260506081556 | 11 | 0 | 0.0 | 3.2 | 0.00 | 0.00 | 0.00 | 78 | 1008.7 |
| 20260506073054 | 12 | 360 | 1.6 | 8.0 | 0.00 | 0.00 | 0.00 | 77 | 1008.6 |
| 20260506071551 | 12 | 360 | 1.6 | 8.0 | 0.00 | 0.00 | 0.00 | 77 | 1008.5 |
| 20260506061557 | 12 | 360 | 1.6 | 9.7 | 0.00 | 0.00 | 0.00 | 74 | 1008.1 |
| 20260506060112 | 12 | 360 | 3.2 | 8.0 | 0.00 | 0.00 | 0.00 | 74 | 1008.1 |
| 20260506044605 | 13 | 360 | 1.6 | 6.4 | 0.00 | 0.00 | 0.00 | 74 | 1008.3 |
| 20260506043054 | 13 | 360 | 0.0 | 8.0 | 0.00 | 0.00 | 0.00 | 74 | 1008.3 |
| 20260506041552 | 13 | 0 | 0.0 | 3.2 | 0.00 | 0.00 | 0.00 | 73 | 1008.2 |
| 20260506040055 | 13 | 360 | 0.0 | 6.4 | 0.00 | 0.00 | 0.00 | 73 | 1008.3 |
| 20260506034554 | 13 | 360 | 0.0 | 4.8 | 0.00 | 0.00 | 0.00 | 72 | 1008.2 |
| 20260506033052 | 13 | 360 | 1.6 | 6.4 | 0.00 | 0.00 | 0.00 | 72 | 1008.1 |
| 20260506031557 | 13 | 360 | 1.6 | 8.0 | 0.00 | 0.00 | 0.00 | 71 | 1008.0 |
| 20260506030058 | 14 | 0 | 0.0 | 3.2 | 0.00 | 0.00 | 0.00 | 70 | 1007.9 |
| 20260506024600 | 14 | 0 | 0.0 | 4.8 | 0.00 | 0.00 | 0.00 | 69 | 1008.2 |
| 20260506023100 | 15 | 360 | 0.0 | 3.2 | 0.00 | 0.00 | 0.00 | 67 | 1008.2 |
| 20260506021559 | 15 | 0 | 1.6 | 6.4 | 0.00 | 0.00 | 0.00 | 66 | 1008.3 |
| 20260506020053 | 16 | 360 | 1.6 | 4.8 | 0.00 | 0.00 | 0.00 | 65 | 1008.3 |
| 20260506014558 | 16 | 0 | 0.0 | 8.0 | 0.00 | 0.00 | 0.00 | 64 | 1008.4 |
| 20260506013055 | 16 | 0 | 1.6 | 4.8 | 0.00 | 0.00 | 0.00 | 64 | 1008.3 |
| 20260506011556 | 16 | 0 | 0.0 | 3.2 | 0.00 | 0.00 | 0.00 | 63 | 1008.2 |
| 20260506010056 | 17 | 360 | 0.0 | 6.4 | 0.00 | 0.00 | 0.00 | 63 | 1008.0 |
| 20260506004554 | 17 | 360 | 1.6 | 8.0 | 0.00 | 0.00 | 0.00 | 62 | 1007.9 |
| 20260506003054 | 17 | 360 | 4.8 | 9.7 | 0.00 | 0.00 | 0.00 | 62 | 1007.8 |
| 20260506001551 | 17 | 0 | 1.6 | 6.4 | 0.00 | 0.00 | 0.00 | 61 | 1007.1 |
| 20260506000055 | 18 | 360 | 1.6 | 9.7 | 0.00 | 0.00 | 0.00 | 60 | 1006.7 |
| 20260505234555 | 18 | 0 | 1.6 | 4.8 | 0.00 | 0.00 | 0.00 | 60 | 1006.1 |
| 20260505233053 | 18 | 360 | 0.0 | 12.9 | 0.00 | 0.00 | 0.00 | 61 | 1006.2 |
| 20260505231602 | 17 | 360 | 3.2 | 19.3 | 0.00 | 0.00 | 0.00 | 61 | 1006.3 |
| 20260505230059 | 17 | 360 | 8.0 | 25.7 | 0.00 | 0.00 | 0.00 | 63 | 1006.6 |
| 20260505224554 | 17 | 360 | 12.9 | 29.0 | 0.00 | 0.00 | 0.00 | 61 | 1004.8 |
| 20260505223056 | 17 | 360 | 9.7 | 30.6 | 0.00 | 0.00 | 0.00 | 61 | 1004.6 |
| 20260505221554 | 17 | 360 | 11.3 | 30.6 | 0.00 | 0.00 | 0.00 | 61 | 1004.6 |
| 20260505220055 | 17 | 360 | 12.9 | 32.2 | 0.00 | 0.00 | 0.00 | 61 | 1004.4 |